Location: Skalnate Pleso
(49.1889°N, 20.2450°E)
Time: 21:46:19
(UTC+01:00)

COBE Rocket - Pass Details

Date: 19 November 2019
Orbit: 679 x 783 km, 97.1° (Epoch: 14 December)

Event Time Altitude Azimuth Distance (km) Brightness Sun altitude
Rises 04:57:35 0° 185° (S) 3,247 7.3 -18.8°
Reaches altitude 10° 05:00:01 10° 191° (SSW) 2,315 6.5 -18.4°
Maximum altitude 05:04:53 44° 263° (W) 1,056 4.3 -17.7°
Enters shadow 05:09:25 12° 335° (NNW) 2,177 6.0 -16.9°
